Year,Month,Day,Hour,Minute,Value (Times are PST for temperature in C)
2005,06,14,00,00,12.40
2005,06,14,00,01,12.30
2005,06,14,00,02,12.30
2005,06,14,00,03,12.30
2005,06,14,00,04,12.30
2005,06,14,00,05,12.30
2005,06,14,00,06,12.30
2005,06,14,00,07,12.30
2005,06,14,00,08,12.30
2005,06,14,00,09,12.30
2005,06,14,00,10,12.30
2005,06,14,00,11,12.30
2005,06,14,00,12,12.20
2005,06,14,00,13,12.20
2005,06,14,00,14,12.20
2005,06,14,00,15,12.20
2005,06,14,00,16,12.20
2005,06,14,00,17,12.20
2005,06,14,00,18,12.20
2005,06,14,00,19,12.20
2005,06,14,00,20,12.10
2005,06,14,00,21,12.10
2005,06,14,00,22,12.10
2005,06,14,00,23,12.10
2005,06,14,00,24,12.10
2005,06,14,00,25,12.10
2005,06,14,00,26,12.10
2005,06,14,00,27,12.10
2005,06,14,00,28,12.10
2005,06,14,00,29,12.10
2005,06,14,00,30,12.10
2005,06,14,00,31,12.10
2005,06,14,00,32,12.00
2005,06,14,00,33,12.00
2005,06,14,00,34,12.00
2005,06,14,00,35,12.00
2005,06,14,00,36,11.90
2005,06,14,00,37,11.90
2005,06,14,00,38,11.90
2005,06,14,00,39,11.90
2005,06,14,00,40,11.90
2005,06,14,00,41,11.90
2005,06,14,00,42,11.90
2005,06,14,00,43,11.90
2005,06,14,00,44,12.00
2005,06,14,00,45,12.00
2005,06,14,00,46,12.00
2005,06,14,00,47,12.00
2005,06,14,00,48,12.00
2005,06,14,00,49,12.00
2005,06,14,00,50,12.00
2005,06,14,00,51,12.00
2005,06,14,00,52,12.00
2005,06,14,00,53,12.00
2005,06,14,00,54,12.00
2005,06,14,00,55,12.00
2005,06,14,00,56,12.00
2005,06,14,00,57,12.00
2005,06,14,00,58,12.00
2005,06,14,00,59,12.00
2005,06,14,01,00,12.00
2005,06,14,01,01,12.00
2005,06,14,01,02,12.00
2005,06,14,01,03,12.00
2005,06,14,01,04,12.00
2005,06,14,01,05,11.90
2005,06,14,01,06,11.90
2005,06,14,01,07,11.80
2005,06,14,01,08,11.80
2005,06,14,01,09,11.80
2005,06,14,01,10,11.80
2005,06,14,01,11,11.70
2005,06,14,01,12,11.70
2005,06,14,01,13,11.70
2005,06,14,01,14,11.70
2005,06,14,01,15,11.70
2005,06,14,01,16,11.70
2005,06,14,01,17,11.70
2005,06,14,01,18,11.70
2005,06,14,01,19,11.70
2005,06,14,01,20,11.70
2005,06,14,01,21,11.60
2005,06,14,01,22,11.60
2005,06,14,01,23,11.60
2005,06,14,01,24,11.60
2005,06,14,01,25,11.60
2005,06,14,01,26,11.60
2005,06,14,01,27,11.60
2005,06,14,01,28,11.60
2005,06,14,01,29,11.60
2005,06,14,01,30,11.60
2005,06,14,01,31,11.50
2005,06,14,01,32,11.40
2005,06,14,01,33,11.40
2005,06,14,01,34,11.40
2005,06,14,01,35,11.40
2005,06,14,01,36,11.40
2005,06,14,01,37,11.40
2005,06,14,01,38,11.40
2005,06,14,01,39,11.40
2005,06,14,01,40,11.40
2005,06,14,01,41,11.40
2005,06,14,01,42,11.40
2005,06,14,01,43,11.40
2005,06,14,01,44,11.40
2005,06,14,01,45,11.40
2005,06,14,01,46,11.40
2005,06,14,01,47,11.40
2005,06,14,01,48,11.40
2005,06,14,01,49,11.40
2005,06,14,01,50,11.40
2005,06,14,01,51,11.40
2005,06,14,01,52,11.40
2005,06,14,01,53,11.40
2005,06,14,01,54,11.40
2005,06,14,01,55,11.40
2005,06,14,01,56,11.40
2005,06,14,01,57,11.40
2005,06,14,01,58,11.40
2005,06,14,01,59,11.40
2005,06,14,02,00,11.40
2005,06,14,02,01,11.40
2005,06,14,02,02,11.40
2005,06,14,02,03,11.40
2005,06,14,02,04,11.40
2005,06,14,02,05,11.40
2005,06,14,02,06,11.40
2005,06,14,02,07,11.40
2005,06,14,02,08,11.40
2005,06,14,02,09,11.40
2005,06,14,02,10,11.40
2005,06,14,02,11,11.40
2005,06,14,02,12,11.40
2005,06,14,02,13,11.40
2005,06,14,02,14,11.40
2005,06,14,02,15,11.40
2005,06,14,02,16,11.40
2005,06,14,02,17,11.40
2005,06,14,02,18,11.40
2005,06,14,02,19,11.40
2005,06,14,02,20,11.40
2005,06,14,02,21,11.40
2005,06,14,02,22,11.40
2005,06,14,02,23,11.40
2005,06,14,02,24,11.40
2005,06,14,02,25,11.40
2005,06,14,02,26,11.40
2005,06,14,02,27,11.40
2005,06,14,02,28,11.40
2005,06,14,02,29,11.40
2005,06,14,02,30,11.40
2005,06,14,02,31,11.40
2005,06,14,02,32,11.30
2005,06,14,02,33,11.30
2005,06,14,02,34,11.30
2005,06,14,02,35,11.30
2005,06,14,02,36,11.30
2005,06,14,02,37,11.30
2005,06,14,02,38,11.20
2005,06,14,02,39,11.20
2005,06,14,02,40,11.20
2005,06,14,02,41,11.20
2005,06,14,02,42,11.20
2005,06,14,02,43,11.20
2005,06,14,02,44,11.20
2005,06,14,02,45,11.10
2005,06,14,02,46,11.10
2005,06,14,02,47,11.10
2005,06,14,02,48,11.10
2005,06,14,02,49,11.10
2005,06,14,02,50,11.10
2005,06,14,02,51,11.10
2005,06,14,02,52,11.00
2005,06,14,02,53,10.90
2005,06,14,02,54,10.90
2005,06,14,02,55,10.90
2005,06,14,02,56,10.90
2005,06,14,02,57,10.90
2005,06,14,02,58,10.90
2005,06,14,02,59,10.90
2005,06,14,03,00,10.90
2005,06,14,03,01,10.90
2005,06,14,03,02,10.90
2005,06,14,03,03,10.90
2005,06,14,03,04,10.90
2005,06,14,03,05,10.90
2005,06,14,03,06,10.90
2005,06,14,03,07,10.90
2005,06,14,03,08,10.90
2005,06,14,03,09,10.90
2005,06,14,03,10,10.90
2005,06,14,03,11,10.90
2005,06,14,03,12,10.90
2005,06,14,03,13,10.80
2005,06,14,03,14,10.80
2005,06,14,03,15,10.80
2005,06,14,03,16,10.80
2005,06,14,03,17,10.80
2005,06,14,03,18,10.80
2005,06,14,03,19,10.70
2005,06,14,03,20,10.70
2005,06,14,03,21,10.70
2005,06,14,03,22,10.70
2005,06,14,03,23,10.70
2005,06,14,03,24,10.60
2005,06,14,03,25,10.60
2005,06,14,03,26,10.60
2005,06,14,03,27,10.60
2005,06,14,03,28,10.60
2005,06,14,03,29,10.60
2005,06,14,03,30,10.60
2005,06,14,03,31,10.60
2005,06,14,03,32,10.60
2005,06,14,03,33,10.60
2005,06,14,03,34,10.60
2005,06,14,03,35,10.60
2005,06,14,03,36,10.60
2005,06,14,03,37,10.60
2005,06,14,03,38,10.60
2005,06,14,03,39,10.50
2005,06,14,03,40,10.40
2005,06,14,03,41,10.40
2005,06,14,03,42,10.40
2005,06,14,03,43,10.40
2005,06,14,03,44,10.40
2005,06,14,03,45,10.40
2005,06,14,03,46,10.30
2005,06,14,03,47,10.30
2005,06,14,03,48,10.30
2005,06,14,03,49,10.30
2005,06,14,03,50,10.20
2005,06,14,03,51,10.20
2005,06,14,03,52,10.20
2005,06,14,03,53,10.20
2005,06,14,03,54,10.20
2005,06,14,03,55,10.20
2005,06,14,03,56,10.20
2005,06,14,03,57,10.20
2005,06,14,03,58,10.20
2005,06,14,03,59,10.10
2005,06,14,04,00,10.10
2005,06,14,04,01,10.10
2005,06,14,04,02,10.10
2005,06,14,04,03,10.10
2005,06,14,04,04,10.10
2005,06,14,04,05,10.10
2005,06,14,04,06,10.10
2005,06,14,04,07,10.10
2005,06,14,04,08,10.10
2005,06,14,04,09,10.10
2005,06,14,04,10,10.10
2005,06,14,04,11,10.20
2005,06,14,04,12,10.20
2005,06,14,04,13,10.20
2005,06,14,04,14,10.20
2005,06,14,04,15,10.20
2005,06,14,04,16,10.20
2005,06,14,04,17,10.20
2005,06,14,04,18,10.20
2005,06,14,04,19,10.30
2005,06,14,04,20,10.30
2005,06,14,04,21,10.30
2005,06,14,04,22,10.30
2005,06,14,04,23,10.30
2005,06,14,04,24,10.30
2005,06,14,04,25,10.30
2005,06,14,04,26,10.30
2005,06,14,04,27,10.30
2005,06,14,04,28,10.30
2005,06,14,04,29,10.30
2005,06,14,04,30,10.20
2005,06,14,04,31,10.20
2005,06,14,04,32,10.20
2005,06,14,04,33,10.20
2005,06,14,04,34,10.20
2005,06,14,04,35,10.20
2005,06,14,04,36,10.20
2005,06,14,04,37,10.20
2005,06,14,04,38,10.20
2005,06,14,04,39,10.20
2005,06,14,04,40,10.20
2005,06,14,04,41,10.20
2005,06,14,04,42,10.20
2005,06,14,04,43,10.20
2005,06,14,04,44,10.20
2005,06,14,04,45,10.20
2005,06,14,04,46,10.20
2005,06,14,04,47,10.20
2005,06,14,04,48,10.10
2005,06,14,04,49,10.10
2005,06,14,04,50,10.10
2005,06,14,04,51,10.10
2005,06,14,04,52,10.10
2005,06,14,04,53,10.10
2005,06,14,04,54,10.10
2005,06,14,04,55,10.10
2005,06,14,04,56,10.10
2005,06,14,04,57,10.00
2005,06,14,04,58,9.90
2005,06,14,04,59,9.90
2005,06,14,05,00,9.90
2005,06,14,05,01,9.90
2005,06,14,05,02,9.90
2005,06,14,05,03,9.90
2005,06,14,05,04,9.90
2005,06,14,05,05,9.90
2005,06,14,05,06,9.90
2005,06,14,05,07,9.80
2005,06,14,05,08,9.80
2005,06,14,05,09,9.80
2005,06,14,05,10,9.80
2005,06,14,05,11,9.80
2005,06,14,05,12,9.80
2005,06,14,05,13,9.80
2005,06,14,05,14,9.90
2005,06,14,05,15,9.90
2005,06,14,05,16,9.90
2005,06,14,05,17,9.90
2005,06,14,05,18,9.90
2005,06,14,05,19,9.90
2005,06,14,05,20,9.90
2005,06,14,05,21,9.90
2005,06,14,05,22,9.90
2005,06,14,05,23,9.90
2005,06,14,05,24,9.90
2005,06,14,05,25,9.90
2005,06,14,05,26,9.90
2005,06,14,05,27,9.90
2005,06,14,05,28,9.80
2005,06,14,05,29,9.80
2005,06,14,05,30,9.80
2005,06,14,05,31,9.80
2005,06,14,05,32,9.80
2005,06,14,05,33,9.80
2005,06,14,05,34,9.70
2005,06,14,05,35,9.70
2005,06,14,05,36,9.70
2005,06,14,05,37,9.70
2005,06,14,05,38,9.70
2005,06,14,05,39,9.70
2005,06,14,05,40,9.70
2005,06,14,05,41,9.70
2005,06,14,05,42,9.70
2005,06,14,05,43,9.70
2005,06,14,05,44,9.70
2005,06,14,05,45,9.60
2005,06,14,05,46,9.60
2005,06,14,05,47,9.60
2005,06,14,05,48,9.60
2005,06,14,05,49,9.60
2005,06,14,05,50,9.60
2005,06,14,05,51,9.60
2005,06,14,05,52,9.60
2005,06,14,05,53,9.60
2005,06,14,05,54,9.60
2005,06,14,05,55,9.60
2005,06,14,05,56,9.60
2005,06,14,05,57,9.60
2005,06,14,05,58,9.60
2005,06,14,05,59,9.60
2005,06,14,06,00,9.60
2005,06,14,06,01,9.60
2005,06,14,06,02,9.60
2005,06,14,06,03,9.60
2005,06,14,06,04,9.50
2005,06,14,06,05,9.50
2005,06,14,06,06,9.50
2005,06,14,06,07,9.50
2005,06,14,06,08,9.60
2005,06,14,06,09,9.60
2005,06,14,06,10,9.60
2005,06,14,06,11,9.60
2005,06,14,06,12,9.60
2005,06,14,06,13,9.60
2005,06,14,06,14,9.60
2005,06,14,06,15,9.60
2005,06,14,06,16,9.70
2005,06,14,06,17,9.70
2005,06,14,06,18,9.70
2005,06,14,06,19,9.70
2005,06,14,06,20,9.70
2005,06,14,06,21,9.70
2005,06,14,06,22,9.80
2005,06,14,06,23,9.80
2005,06,14,06,24,9.80
2005,06,14,06,25,9.90
2005,06,14,06,26,9.90
2005,06,14,06,27,9.90
2005,06,14,06,28,9.90
2005,06,14,06,29,9.90
2005,06,14,06,30,10.10
2005,06,14,06,31,10.10
2005,06,14,06,32,10.10
2005,06,14,06,33,10.20
2005,06,14,06,34,10.20
2005,06,14,06,35,10.20
2005,06,14,06,36,10.30
2005,06,14,06,37,10.30
2005,06,14,06,38,10.30
2005,06,14,06,39,10.40
2005,06,14,06,40,10.40
2005,06,14,06,41,10.40
2005,06,14,06,42,10.40
2005,06,14,06,43,10.40
2005,06,14,06,44,10.40
2005,06,14,06,45,10.40
2005,06,14,06,46,10.40
2005,06,14,06,47,10.40
2005,06,14,06,48,10.40
2005,06,14,06,49,10.50
2005,06,14,06,50,10.60
2005,06,14,06,51,10.60
2005,06,14,06,52,10.60
2005,06,14,06,53,10.60
2005,06,14,06,54,10.60
2005,06,14,06,55,10.60
2005,06,14,06,56,10.60
2005,06,14,06,57,10.60
2005,06,14,06,58,10.70
2005,06,14,06,59,10.70
2005,06,14,07,00,10.70
2005,06,14,07,01,10.80
2005,06,14,07,02,10.80
2005,06,14,07,03,10.80
2005,06,14,07,04,10.90
2005,06,14,07,05,10.90
2005,06,14,07,06,10.90
2005,06,14,07,07,11.00
2005,06,14,07,08,11.10
2005,06,14,07,09,11.10
2005,06,14,07,10,11.20
2005,06,14,07,11,11.20
2005,06,14,07,12,11.30
2005,06,14,07,13,11.40
2005,06,14,07,14,11.40
2005,06,14,07,15,11.50
2005,06,14,07,16,11.60
2005,06,14,07,17,11.60
2005,06,14,07,18,11.60
2005,06,14,07,19,11.60
2005,06,14,07,20,11.60
2005,06,14,07,21,11.60
2005,06,14,07,22,11.60
2005,06,14,07,23,11.60
2005,06,14,07,24,11.60
2005,06,14,07,25,11.60
2005,06,14,07,26,11.60
2005,06,14,07,27,11.70
2005,06,14,07,28,11.70
2005,06,14,07,29,11.70
2005,06,14,07,30,11.70
2005,06,14,07,31,11.70
2005,06,14,07,32,11.70
2005,06,14,07,33,11.70
2005,06,14,07,34,11.60
2005,06,14,07,35,11.60
2005,06,14,07,36,11.60
2005,06,14,07,37,11.60
2005,06,14,07,38,11.70
2005,06,14,07,39,11.70
2005,06,14,07,40,11.70
2005,06,14,07,41,11.80
2005,06,14,07,42,11.80
2005,06,14,07,43,11.80
2005,06,14,07,44,11.80
2005,06,14,07,45,11.90
2005,06,14,07,46,12.00
2005,06,14,07,47,12.00
2005,06,14,07,48,12.00
2005,06,14,07,49,12.10
2005,06,14,07,50,12.10
2005,06,14,07,51,12.20
2005,06,14,07,52,12.20
2005,06,14,07,53,12.20
2005,06,14,07,54,12.30
2005,06,14,07,55,12.30
2005,06,14,07,56,12.30
2005,06,14,07,57,12.30
2005,06,14,07,58,12.40
2005,06,14,07,59,12.40
2005,06,14,08,00,12.40
2005,06,14,08,01,12.40
2005,06,14,08,02,12.50
2005,06,14,08,03,12.50
2005,06,14,08,04,12.50
2005,06,14,08,05,12.50
2005,06,14,08,06,12.50
2005,06,14,08,07,12.50
2005,06,14,08,08,12.50
2005,06,14,08,09,12.50
2005,06,14,08,10,12.60
2005,06,14,08,11,12.60
2005,06,14,08,12,12.60
2005,06,14,08,13,12.60
2005,06,14,08,14,12.60
2005,06,14,08,15,12.60
2005,06,14,08,16,12.60
2005,06,14,08,17,12.70
2005,06,14,08,18,12.70
2005,06,14,08,19,12.70
2005,06,14,08,20,12.80
2005,06,14,08,21,12.80
2005,06,14,08,22,12.80
2005,06,14,08,23,12.90
2005,06,14,08,24,13.10
2005,06,14,08,25,13.20
2005,06,14,08,26,13.30
2005,06,14,08,27,13.30
2005,06,14,08,28,13.40
2005,06,14,08,29,13.50
2005,06,14,08,30,13.50
2005,06,14,08,31,13.70
2005,06,14,08,32,13.80
2005,06,14,08,33,14.00
2005,06,14,08,34,14.20
2005,06,14,08,35,14.30
2005,06,14,08,36,14.40
2005,06,14,08,37,14.60
2005,06,14,08,38,14.70
2005,06,14,08,39,14.80
2005,06,14,08,40,14.90
2005,06,14,08,41,15.00
2005,06,14,08,42,15.10
2005,06,14,08,43,15.20
2005,06,14,08,44,15.30
2005,06,14,08,45,15.30
2005,06,14,08,46,15.20
2005,06,14,08,47,15.10
2005,06,14,08,48,15.10
2005,06,14,08,49,15.10
2005,06,14,08,50,15.10
2005,06,14,08,51,15.00
2005,06,14,08,52,15.00
2005,06,14,08,53,15.10
2005,06,14,08,54,15.20
2005,06,14,08,55,15.20
2005,06,14,08,56,15.30
2005,06,14,08,57,15.30
2005,06,14,08,58,15.30
2005,06,14,08,59,15.30
2005,06,14,09,00,15.30
2005,06,14,09,01,15.30
2005,06,14,09,02,15.30
2005,06,14,09,03,15.30
2005,06,14,09,04,15.30
2005,06,14,09,05,15.30
2005,06,14,09,06,15.30
2005,06,14,09,07,15.30
2005,06,14,09,08,15.30
2005,06,14,09,09,15.10
2005,06,14,09,10,15.00
2005,06,14,09,11,14.90
2005,06,14,09,12,14.80
2005,06,14,09,13,14.80
2005,06,14,09,14,14.70
2005,06,14,09,15,14.80
2005,06,14,09,16,14.70
2005,06,14,09,17,14.70
2005,06,14,09,18,14.70
2005,06,14,09,19,14.80
2005,06,14,09,20,14.90
2005,06,14,09,21,15.00
2005,06,14,09,22,15.00
2005,06,14,09,23,15.00
2005,06,14,09,24,15.00
2005,06,14,09,25,15.10
2005,06,14,09,26,15.30
2005,06,14,09,27,15.30
2005,06,14,09,28,15.30
2005,06,14,09,29,15.40
2005,06,14,09,30,15.50
2005,06,14,09,31,15.60
2005,06,14,09,32,15.60
2005,06,14,09,33,15.70
2005,06,14,09,34,15.80
2005,06,14,09,35,15.80
2005,06,14,09,36,15.80
2005,06,14,09,37,15.90
2005,06,14,09,38,16.10
2005,06,14,09,39,16.20
2005,06,14,09,40,16.20
2005,06,14,09,41,16.20
2005,06,14,09,42,16.20
2005,06,14,09,43,16.20
2005,06,14,09,44,16.30
2005,06,14,09,45,16.40
2005,06,14,09,46,16.40
2005,06,14,09,47,16.50
2005,06,14,09,48,16.60
2005,06,14,09,49,16.60
2005,06,14,09,50,16.60
2005,06,14,09,51,16.60
2005,06,14,09,52,16.60
2005,06,14,09,53,16.70
2005,06,14,09,54,16.70
2005,06,14,09,55,16.70
2005,06,14,09,56,16.80
2005,06,14,09,57,17.00
2005,06,14,09,58,17.10
2005,06,14,09,59,17.20
2005,06,14,10,00,17.30
2005,06,14,10,01,17.30
2005,06,14,10,02,17.20
2005,06,14,10,03,17.10
2005,06,14,10,04,17.20
2005,06,14,10,05,17.10
2005,06,14,10,06,17.00
2005,06,14,10,07,16.90
2005,06,14,10,08,16.70
2005,06,14,10,09,16.70
2005,06,14,10,10,16.60
2005,06,14,10,11,16.50
2005,06,14,10,12,16.40
2005,06,14,10,13,16.30
2005,06,14,10,14,16.20
2005,06,14,10,15,16.10
2005,06,14,10,16,16.10
2005,06,14,10,17,16.10
2005,06,14,10,18,16.10
2005,06,14,10,19,16.10
2005,06,14,10,20,16.00
2005,06,14,10,21,15.90
2005,06,14,10,22,15.90
2005,06,14,10,23,16.00
2005,06,14,10,24,16.10
2005,06,14,10,25,16.10
2005,06,14,10,26,16.30
2005,06,14,10,27,16.50
2005,06,14,10,28,16.70
2005,06,14,10,29,16.60
2005,06,14,10,30,16.50
2005,06,14,10,31,16.40
2005,06,14,10,32,16.50
2005,06,14,10,33,16.70
2005,06,14,10,34,17.00
2005,06,14,10,35,17.00
2005,06,14,10,36,17.10
2005,06,14,10,37,17.10
2005,06,14,10,38,17.30
2005,06,14,10,39,17.40
2005,06,14,10,40,17.50
2005,06,14,10,41,17.50
2005,06,14,10,42,17.50
2005,06,14,10,43,17.70
2005,06,14,10,44,17.70
2005,06,14,10,45,17.60
2005,06,14,10,46,17.50
2005,06,14,10,47,17.30
2005,06,14,10,48,17.10
2005,06,14,10,49,17.00
2005,06,14,10,50,16.90
2005,06,14,10,51,16.70
2005,06,14,10,52,16.70
2005,06,14,10,53,16.70
2005,06,14,10,54,16.70
2005,06,14,10,55,16.70
2005,06,14,10,56,16.80
2005,06,14,10,57,16.90
2005,06,14,10,58,16.90
2005,06,14,10,59,16.90
2005,06,14,11,00,16.80
2005,06,14,11,01,16.70
2005,06,14,11,02,16.50
2005,06,14,11,03,16.40
2005,06,14,11,04,16.30
2005,06,14,11,05,16.30
2005,06,14,11,06,16.30
2005,06,14,11,07,16.40
2005,06,14,11,08,16.40
2005,06,14,11,09,16.40
2005,06,14,11,10,16.50
2005,06,14,11,11,16.60
2005,06,14,11,12,16.60
2005,06,14,11,13,16.60
2005,06,14,11,14,16.60
2005,06,14,11,15,16.60
2005,06,14,11,16,16.50
2005,06,14,11,17,16.20
2005,06,14,11,18,16.10
2005,06,14,11,19,16.10
2005,06,14,11,20,16.10
2005,06,14,11,21,16.10
2005,06,14,11,22,16.10
2005,06,14,11,23,16.10
2005,06,14,11,24,16.10
2005,06,14,11,25,16.10
2005,06,14,11,26,16.10
2005,06,14,11,27,16.10
2005,06,14,11,28,16.10
2005,06,14,11,29,16.10
2005,06,14,11,30,16.10
2005,06,14,11,31,16.10
2005,06,14,11,32,16.10
2005,06,14,11,33,16.10
2005,06,14,11,34,16.10
2005,06,14,11,35,16.10
2005,06,14,11,36,16.00
2005,06,14,11,37,15.90
2005,06,14,11,38,16.00
2005,06,14,11,39,16.10
2005,06,14,11,40,16.00
2005,06,14,11,41,15.90
2005,06,14,11,42,15.70
2005,06,14,11,43,15.60
2005,06,14,11,44,15.50
2005,06,14,11,45,15.40
2005,06,14,11,46,15.50
2005,06,14,11,47,15.60
2005,06,14,11,48,15.60
2005,06,14,11,49,15.50
2005,06,14,11,50,15.50
2005,06,14,11,51,15.50
2005,06,14,11,52,15.30
2005,06,14,11,53,15.30
2005,06,14,11,54,15.30
2005,06,14,11,55,15.30
2005,06,14,11,56,15.40
2005,06,14,11,57,15.40
2005,06,14,11,58,15.40
2005,06,14,11,59,15.40
2005,06,14,12,00,15.40
2005,06,14,12,01,15.50
2005,06,14,12,02,15.60
2005,06,14,12,03,15.60
2005,06,14,12,04,15.70
2005,06,14,12,05,15.70
2005,06,14,12,06,15.70
2005,06,14,12,07,15.80
2005,06,14,12,08,15.80
2005,06,14,12,09,16.00
2005,06,14,12,10,16.20
2005,06,14,12,11,16.50
2005,06,14,12,12,16.60
2005,06,14,12,13,17.00
2005,06,14,12,14,17.20
2005,06,14,12,15,17.20
2005,06,14,12,16,17.00
2005,06,14,12,17,16.90
2005,06,14,12,18,16.90
2005,06,14,12,19,17.00
2005,06,14,12,20,17.10
2005,06,14,12,21,17.30
2005,06,14,12,22,17.40
2005,06,14,12,23,17.50
2005,06,14,12,24,17.50
2005,06,14,12,25,17.50
2005,06,14,12,26,17.50
2005,06,14,12,27,17.60
2005,06,14,12,28,17.80
2005,06,14,12,29,17.80
2005,06,14,12,30,17.70
2005,06,14,12,31,17.70
2005,06,14,12,32,17.80
2005,06,14,12,33,17.70
2005,06,14,12,34,17.90
2005,06,14,12,35,17.90
2005,06,14,12,36,18.00
2005,06,14,12,37,18.10
2005,06,14,12,38,18.10
2005,06,14,12,39,18.10
2005,06,14,12,40,18.00
2005,06,14,12,41,17.90
2005,06,14,12,42,17.70
2005,06,14,12,43,17.70
2005,06,14,12,44,17.70
2005,06,14,12,45,17.60
2005,06,14,12,46,17.60
2005,06,14,12,47,17.70
2005,06,14,12,48,17.80
2005,06,14,12,49,17.80
2005,06,14,12,50,17.90
2005,06,14,12,51,17.90
2005,06,14,12,52,17.80
2005,06,14,12,53,17.60
2005,06,14,12,54,17.60
2005,06,14,12,55,17.70
2005,06,14,12,56,17.70
2005,06,14,12,57,17.80
2005,06,14,12,58,17.80
2005,06,14,12,59,17.90
2005,06,14,13,00,18.00
2005,06,14,13,01,17.90
2005,06,14,13,02,17.90
2005,06,14,13,03,17.90
2005,06,14,13,04,17.90
2005,06,14,13,05,17.80
2005,06,14,13,06,17.70
2005,06,14,13,07,17.80
2005,06,14,13,08,17.80
2005,06,14,13,09,17.70
2005,06,14,13,10,17.70
2005,06,14,13,11,17.70
2005,06,14,13,12,17.50
2005,06,14,13,13,17.40
2005,06,14,13,14,17.30
2005,06,14,13,15,17.10
2005,06,14,13,16,17.10
2005,06,14,13,17,17.20
2005,06,14,13,18,17.30
2005,06,14,13,19,17.40
2005,06,14,13,20,17.50
2005,06,14,13,21,17.50
2005,06,14,13,22,17.50
2005,06,14,13,23,17.50
2005,06,14,13,24,17.50
2005,06,14,13,25,17.40
2005,06,14,13,26,17.40
2005,06,14,13,27,17.30
2005,06,14,13,28,17.40
2005,06,14,13,29,17.50
2005,06,14,13,30,17.50
2005,06,14,13,31,17.60
2005,06,14,13,32,17.70
2005,06,14,13,33,17.60
2005,06,14,13,34,17.50
2005,06,14,13,35,17.60
2005,06,14,13,36,17.80
2005,06,14,13,37,17.90
2005,06,14,13,38,17.90
2005,06,14,13,39,18.00
2005,06,14,13,40,18.10
2005,06,14,13,41,18.10
2005,06,14,13,42,18.10
2005,06,14,13,43,18.10
2005,06,14,13,44,17.90
2005,06,14,13,45,17.90
2005,06,14,13,46,17.90
2005,06,14,13,47,18.00
2005,06,14,13,48,18.20
2005,06,14,13,49,18.30
2005,06,14,13,50,18.30
2005,06,14,13,51,18.30
2005,06,14,13,52,18.20
2005,06,14,13,53,18.10
2005,06,14,13,54,18.10
2005,06,14,13,55,18.20
2005,06,14,13,56,18.30
2005,06,14,13,57,18.40
2005,06,14,13,58,18.50
2005,06,14,13,59,18.50
2005,06,14,14,00,18.30
2005,06,14,14,01,18.40
2005,06,14,14,02,18.40
2005,06,14,14,03,18.30
2005,06,14,14,04,18.20
2005,06,14,14,05,18.20
2005,06,14,14,06,18.20
2005,06,14,14,07,18.30
2005,06,14,14,08,18.20
2005,06,14,14,09,18.20
2005,06,14,14,10,18.10
2005,06,14,14,11,18.10
2005,06,14,14,12,18.10
2005,06,14,14,13,18.20
2005,06,14,14,14,18.20
2005,06,14,14,15,18.40
2005,06,14,14,16,18.40
2005,06,14,14,17,18.50
2005,06,14,14,18,18.70
2005,06,14,14,19,18.90
2005,06,14,14,20,18.90
2005,06,14,14,21,18.90
2005,06,14,14,22,18.80
2005,06,14,14,23,18.60
2005,06,14,14,24,18.40
2005,06,14,14,25,18.30
2005,06,14,14,26,18.20
2005,06,14,14,27,18.20
2005,06,14,14,28,18.20
2005,06,14,14,29,18.20
2005,06,14,14,30,18.30
2005,06,14,14,31,18.30
2005,06,14,14,32,18.30
2005,06,14,14,33,18.40
2005,06,14,14,34,18.50
2005,06,14,14,35,18.60
2005,06,14,14,36,18.90
2005,06,14,14,37,19.10
2005,06,14,14,38,19.20
2005,06,14,14,39,19.40
2005,06,14,14,40,19.50
2005,06,14,14,41,19.60
2005,06,14,14,42,19.60
2005,06,14,14,43,19.40
2005,06,14,14,44,19.20
2005,06,14,14,45,19.10
2005,06,14,14,46,19.00
2005,06,14,14,47,18.90
2005,06,14,14,48,18.80
2005,06,14,14,49,18.60
2005,06,14,14,50,18.60
2005,06,14,14,51,18.70
2005,06,14,14,52,18.80
2005,06,14,14,53,18.90
2005,06,14,14,54,18.90
2005,06,14,14,55,18.90
2005,06,14,14,56,18.80
2005,06,14,14,57,18.70
2005,06,14,14,58,18.70
2005,06,14,14,59,18.70
2005,06,14,15,00,18.60
2005,06,14,15,01,18.60
2005,06,14,15,02,18.80
2005,06,14,15,03,18.90
2005,06,14,15,04,18.80
2005,06,14,15,05,18.80
2005,06,14,15,06,18.80
2005,06,14,15,07,18.70
2005,06,14,15,08,18.60
2005,06,14,15,09,18.60
2005,06,14,15,10,18.60
2005,06,14,15,11,18.60
2005,06,14,15,12,18.60
2005,06,14,15,13,18.60
2005,06,14,15,14,18.70
2005,06,14,15,15,18.80
2005,06,14,15,16,18.90
2005,06,14,15,17,19.10
2005,06,14,15,18,19.20
2005,06,14,15,19,19.20
2005,06,14,15,20,19.20
2005,06,14,15,21,19.20
2005,06,14,15,22,19.10
2005,06,14,15,23,18.90
2005,06,14,15,24,18.90
2005,06,14,15,25,18.90
2005,06,14,15,26,18.80
2005,06,14,15,27,18.80
2005,06,14,15,28,18.70
2005,06,14,15,29,18.60
2005,06,14,15,30,18.50
2005,06,14,15,31,18.50
2005,06,14,15,32,18.50
2005,06,14,15,33,18.50
2005,06,14,15,34,18.40
2005,06,14,15,35,18.30
2005,06,14,15,36,18.20
2005,06,14,15,37,18.20
2005,06,14,15,38,18.10
2005,06,14,15,39,18.10
2005,06,14,15,40,18.10
2005,06,14,15,41,18.00
2005,06,14,15,42,17.90
2005,06,14,15,43,17.90
2005,06,14,15,44,17.90
2005,06,14,15,45,17.90
2005,06,14,15,46,17.90
2005,06,14,15,47,18.00
2005,06,14,15,48,18.10
2005,06,14,15,49,18.20
2005,06,14,15,50,18.20
2005,06,14,15,51,18.10
2005,06,14,15,52,18.00
2005,06,14,15,53,17.90
2005,06,14,15,54,17.80
2005,06,14,15,55,17.80
2005,06,14,15,56,17.70
2005,06,14,15,57,17.70
2005,06,14,15,58,17.70
2005,06,14,15,59,17.70
2005,06,14,16,00,17.70
2005,06,14,16,01,17.70
2005,06,14,16,02,17.70
2005,06,14,16,03,17.70
2005,06,14,16,04,17.80
2005,06,14,16,05,17.90
2005,06,14,16,06,17.90
2005,06,14,16,07,17.90
2005,06,14,16,08,17.90
2005,06,14,16,09,17.90
2005,06,14,16,10,17.90
2005,06,14,16,11,17.80
2005,06,14,16,12,17.80
2005,06,14,16,13,17.90
2005,06,14,16,14,18.00
2005,06,14,16,15,18.20
2005,06,14,16,16,18.30
2005,06,14,16,17,18.40
2005,06,14,16,18,18.40
2005,06,14,16,19,18.30
2005,06,14,16,20,18.20
2005,06,14,16,21,18.00
2005,06,14,16,22,17.90
2005,06,14,16,23,17.80
2005,06,14,16,24,17.80
2005,06,14,16,25,17.80
2005,06,14,16,26,17.80
2005,06,14,16,27,17.80
2005,06,14,16,28,17.90
2005,06,14,16,29,17.80
2005,06,14,16,30,17.80
2005,06,14,16,31,17.80
2005,06,14,16,32,17.80
2005,06,14,16,33,17.70
2005,06,14,16,34,17.70
2005,06,14,16,35,17.60
2005,06,14,16,36,17.50
2005,06,14,16,37,17.50
2005,06,14,16,38,17.50
2005,06,14,16,39,17.60
2005,06,14,16,40,17.50
2005,06,14,16,41,17.30
2005,06,14,16,42,17.30
2005,06,14,16,43,17.20
2005,06,14,16,44,17.20
2005,06,14,16,45,17.20
2005,06,14,16,46,17.30
2005,06,14,16,47,17.30
2005,06,14,16,48,17.40
2005,06,14,16,49,17.50
2005,06,14,16,50,17.60
2005,06,14,16,51,17.60
2005,06,14,16,52,17.60
2005,06,14,16,53,17.70
2005,06,14,16,54,17.70
2005,06,14,16,55,17.70
2005,06,14,16,56,17.60
2005,06,14,16,57,17.70
2005,06,14,16,58,17.80
2005,06,14,16,59,17.80
2005,06,14,17,00,17.80
2005,06,14,17,01,17.90
2005,06,14,17,02,17.90
2005,06,14,17,03,18.00
2005,06,14,17,04,18.20
2005,06,14,17,05,18.20
2005,06,14,17,06,18.30
2005,06,14,17,07,18.20
2005,06,14,17,08,18.20
2005,06,14,17,09,18.20
2005,06,14,17,10,18.20
2005,06,14,17,11,18.20
2005,06,14,17,12,18.20
2005,06,14,17,13,18.20
2005,06,14,17,14,18.20
2005,06,14,17,15,18.20
2005,06,14,17,16,18.30
2005,06,14,17,17,18.40
2005,06,14,17,18,18.50
2005,06,14,17,19,18.60
2005,06,14,17,20,18.60
2005,06,14,17,21,18.70
2005,06,14,17,22,18.60
2005,06,14,17,23,18.50